Погода в Семпорне

Малайзия     4°28′39″N   118°36′34″E
темп.,
°C
ветер,
м/с
пор.,
м/с
влажн.,
%
обл.,
%
осадки,
мм/ч
давл.,
гПа
погр.,
м
13 апреля, вт
вт1323:00+24ссз12926 0.3 1012141
02:00+24ссз239518 0.3 1010180
05:00+24сз229651 2.5 1011150
08:00+26сз249184 5.4 1012261
11:00+31ссз2361100 2.6 10121060
14:00+31ююз236097 3.6 10091144
17:00+27ю118969 2.6 100887
20:00+25юв019182 2.8 1011104
14 апреля, ср
ср1423:00+24зсз119344 2.6 1012107
02:00+23зсз1194100 4.5 101037
05:00+23зсз1195100 0.4 101041
08:00+25з1192100 0.8 1012132
11:00+29зсз0164100 0.1 1011874
14:00+30вюв2261100 0.1 10081231
17:00+29юв11706 0.3 1008683
20:00+25в1190100 0.9 1010121
15 апреля, чт
чт1523:00+24с11929 0.4 1011175
02:00+23сз129530 1.8 100990
05:00+23з119676 1.1 100934
08:00+25зсз1192100 2.0 101291
11:00+29зюз1267100 1.3 1011829
14:00+29ю1171100 3.1 1009831
17:00+27юв1185100 2.1 1008126
20:00+25в0190100 2.2 1010138
16 апреля, пт
пт1623:00+24зсз119293 2.4 1012166
02:00+23зюз119596 5.6 101054
05:00+23зюз1195100 0.8 101043
08:00+25зюз118891 0.8 1012173
11:00+30всв116298 0.1 10111185
14:00+30всв2163100 0.2 10091000
17:00+28в2375100 0.4 1008423
20:00+25всв1183100 0.8 1010162
17 апреля, сб
сб1723:00+25сз1192100 0.9 1012138
02:00+24зсз1195100 2.4 101092
05:00+24зсз1195100 1.6 101063
08:00+25зсз1293100 2.4 101298
11:00+28ссз1275100 0.7 1012531
14:00+29ю2264100 0.7 1009824
17:00+27ююз1186100 1.6 100985
20:00+25с1189100 4.6 1011121